Simultaneous Nadir Overpasses (SNOs) Predictions

Prediction of SNOs between GOES-16 and NOAA-20 Satellite Orbit:

Table of predicted SNOs for the next 14.0 days since TLE Epoch: 5/8/2021
Index Date Time (GOES-16) GOES-16 Lat,Lon NOAA-20 Lat,Lon Distance(km) Time Diff (sec)
1 05/09/2021 18:29:33 0.02, -75.19 -0.13, -75.82 72.78 80
2 05/10/2021 18:08:09 0.02, -75.19 0.87, -71.29 444.26 80
3 05/12/2021 06:32:37 -0.02, -75.20 0.30, -76.57 156.00 80
4 05/13/2021 06:11:12 -0.02, -75.21 -0.70, -72.04 361.17 80
5 05/14/2021 18:35:50 0.01, -75.23 -0.46, -77.35 241.00 80
6 05/15/2021 18:14:25 0.01, -75.25 0.54, -72.82 276.44 80
7 05/17/2021 06:38:54 -0.01, -75.26 0.62, -78.09 323.17 80
8 05/18/2021 06:17:29 -0.01, -75.27 -0.38, -73.56 194.47 80
9 05/19/2021 18:39:26 0.00, -75.30 -0.78, -78.88 406.98 80
10 05/20/2021 18:23:22 0.00, -75.32 0.22, -74.35 111.11 80
